When you browse on this site, cookies collect data to enhance your experience and personalize the content and advertising you see.
Visit our Privacy Policy to learn more. By continuing to use the site, you agree to this use of cookies and data.
  • In Hungary
  • List of Countries
  • For 7 days
  • Water Temperature
  • Weather Map
  • News
  • Weather Widgets
  • user-avatar
    Login

    Hourly Weather Sosenka

    Today, 22 September, Sunday

    Time Temperature Precipitation Wind Pressure Humidity
    00:00 +5°C° 0.1 mm 2 mps 734 mmHg 96%
    01:00 +4°C° 0.1 mm 3 mps 733 mmHg 96%
    02:00 +4°C° 0 mm 3 mps 733 mmHg 96%
    03:00 +4°C° 0.5 mm 4 mps 733 mmHg 96%
    04:00 +4°C° 0.5 mm 4 mps 733 mmHg 95%
    05:00 +3°C° 0.5 mm 5 mps 733 mmHg 94%
    06:00 +2°C° 0.2 mm 5 mps 733 mmHg 93%
    07:00 +2°C° 0.2 mm 5 mps 734 mmHg 92%
    08:00 +3°C° 0 mm 4 mps 734 mmHg 92%
    09:00 +2°C° 0.3 mm 5 mps 735 mmHg 89%
    10:00 +2°C° 0.3 mm 6 mps 735 mmHg 85%
    11:00 +3°C° 0.3 mm 7 mps 736 mmHg 82%
    12:00 +3°C° 0.1 mm 6 mps 736 mmHg 81%
    13:00 +3°C° 0.1 mm 6 mps 736 mmHg 79%
    14:00 +3°C° 0 mm 6 mps 737 mmHg 77%
    15:00 +3°C° 0 mm 5 mps 737 mmHg 77%
    16:00 +2°C° 0 mm 5 mps 737 mmHg 77%
    17:00 +2°C° 0 mm 5 mps 738 mmHg 78%
    18:00 +1°C° 0 mm 4 mps 738 mmHg 81%
    19:00 +1°C° 0 mm 4 mps 739 mmHg 84%
    20:00 0°C° 0 mm 4 mps 740 mmHg 88%
    21:00 0°C° 0 mm 4 mps 740 mmHg 89%
    22:00 0°C° 0 mm 4 mps 740 mmHg 90%
    23:00 -1°C° 0 mm 4 mps 741 mmHg 91%

    Tomorrow, 23 September, Monday

    Time Temperature Precipitation Wind Pressure Humidity
    00:00 -1°C° 0 mm 4 mps 741 mmHg 91%
    01:00 -1°C° 0 mm 4 mps 742 mmHg 91%
    02:00 -2°C° 0 mm 4 mps 742 mmHg 92%
    03:00 -2°C° 0 mm 4 mps 742 mmHg 92%
    04:00 -2°C° 0 mm 4 mps 743 mmHg 92%
    05:00 -2°C° 0 mm 4 mps 743 mmHg 92%
    06:00 -1°C° 0 mm 4 mps 743 mmHg 88%
    07:00 0°C° 0 mm 5 mps 744 mmHg 84%
    08:00 +1°C° 0 mm 5 mps 744 mmHg 80%
    09:00 +2°C° 0 mm 5 mps 744 mmHg 77%
    10:00 +2°C° 0 mm 5 mps 744 mmHg 74%
    11:00 +2°C° 0 mm 5 mps 744 mmHg 71%
    12:00 +3°C° 0 mm 5 mps 744 mmHg 69%
    13:00 +3°C° 0 mm 5 mps 744 mmHg 67%
    14:00 +3°C° 0 mm 5 mps 744 mmHg 65%
    15:00 +4°C° 0 mm 4 mps 744 mmHg 67%
    16:00 +4°C° 0 mm 4 mps 744 mmHg 68%
    17:00 +3°C° 0 mm 4 mps 744 mmHg 70%
    18:00 +2°C° 0 mm 3 mps 744 mmHg 75%
    19:00 +1°C° 0 mm 3 mps 744 mmHg 80%
    20:00 +1°C° 0 mm 3 mps 745 mmHg 85%
    21:00 0°C° 0 mm 3 mps 745 mmHg 87%
    22:00 +1°C° 0 mm 2 mps 745 mmHg 90%
    23:00 +1°C° 0 mm 2 mps 745 mmHg 93%

    Day after tomorrow, 24 September, Tuesday

    Time Temperature Precipitation Wind Pressure Humidity
    00:00 +1°C° 0 mm 2 mps 745 mmHg 94%
    01:00 +1°C° 0 mm 2 mps 745 mmHg 94%
    02:00 +1°C° 0 mm 2 mps 745 mmHg 95%
    03:00 -1°C° 0 mm 2 mps 745 mmHg 96%
    04:00 -1°C° 0 mm 2 mps 745 mmHg 96%
    05:00 -1°C° 0 mm 2 mps 745 mmHg 96%
    06:00 +1°C° 0 mm 2 mps 745 mmHg 91%
    07:00 +1°C° 0 mm 3 mps 745 mmHg 87%
    08:00 +2°C° 0 mm 3 mps 745 mmHg 82%
    09:00 +2°C° 0 mm 3 mps 745 mmHg 77%
    10:00 +3°C° 0 mm 3 mps 745 mmHg 73%
    11:00 +5°C° 0 mm 2 mps 745 mmHg 69%
    12:00 +5°C° 0 mm 2 mps 745 mmHg 67%
    13:00 +5°C° 0 mm 2 mps 745 mmHg 65%
    14:00 +6°C° 0 mm 2 mps 745 mmHg 63%
    15:00 +5°C° 0 mm 2 mps 745 mmHg 67%
    16:00 +4°C° 0 mm 2 mps 745 mmHg 72%
    17:00 +5°C° 0 mm 1 mps 745 mmHg 76%
    18:00 +4°C° 0 mm 1 mps 745 mmHg 81%
    19:00 +3°C° 0 mm 1 mps 745 mmHg 85%
    20:00 +1°C° 0 mm 1 mps 745 mmHg 90%
    21:00 +1°C° 0 mm 1 mps 745 mmHg 91%
    22:00 +1°C° 0 mm 1 mps 746 mmHg 92%
    23:00 0°C° 0 mm 1 mps 746 mmHg 94%

    25 September, Wednesday

    Time Temperature Precipitation Wind Pressure Humidity
    00:00 0°C° 0 mm 1 mps 746 mmHg 93%
    01:00 0°C° 0 mm 1 mps 746 mmHg 93%
    02:00 0°C° 0 mm 1 mps 746 mmHg 93%
    03:00 0°C° 0 mm 1 mps 746 mmHg 92%
    04:00 0°C° 0 mm 1 mps 746 mmHg 92%
    05:00 -1°C° 0 mm 1 mps 746 mmHg 92%
    06:00 +1°C° 0 mm 1 mps 746 mmHg 86%
    07:00 +2°C° 0 mm 1 mps 746 mmHg 80%
    08:00 +4°C° 0 mm 1 mps 746 mmHg 74%
    09:00 +5°C° 0 mm 1 mps 746 mmHg 69%
    10:00 +7°C° 0 mm 1 mps 746 mmHg 65%
    11:00 +8°C° 0 mm 1 mps 746 mmHg 60%
    12:00 +9°C° 0 mm 1 mps 746 mmHg 60%
    13:00 +9°C° 0 mm 1 mps 746 mmHg 60%
    14:00 +9°C° 0 mm 1 mps 746 mmHg 60%
    15:00 +8°C° 0 mm 1 mps 746 mmHg 66%
    16:00 +7°C° 0 mm 1 mps 745 mmHg 72%
    17:00 +6°C° 0 mm 1 mps 745 mmHg 78%
    18:00 +6°C° 0 mm 1 mps 745 mmHg 81%
    19:00 +4°C° 0 mm 0 mps 746 mmHg 85%
    20:00 +3°C° 0 mm 0 mps 746 mmHg 88%
    21:00 +3°C° 0 mm 0 mps 746 mmHg 89%
    22:00 +2°C° 0 mm 0 mps 746 mmHg 91%
    23:00 +3°C° 0 mm 1 mps 746 mmHg 92%

    26 September, Thursday

    Time Temperature Precipitation Wind Pressure Humidity
    00:00 +2°C° 0 mm 1 mps 746 mmHg 93%
    01:00 +2°C° 0 mm 1 mps 746 mmHg 94%
    02:00 +2°C° 0 mm 1 mps 746 mmHg 94%
    03:00 +2°C° 0 mm 1 mps 746 mmHg 95%
    04:00 +1°C° 0 mm 1 mps 746 mmHg 95%
    05:00 +1°C° 0 mm 1 mps 746 mmHg 96%
    06:00 +3°C° 0 mm 1 mps 746 mmHg 92%
    07:00 +3°C° 0 mm 0 mps 746 mmHg 88%
    08:00 +5°C° 0 mm 0 mps 746 mmHg 85%
    09:00 +6°C° 0 mm 1 mps 747 mmHg 80%
    10:00 +7°C° 0 mm 1 mps 747 mmHg 76%
    11:00 +8°C° 0 mm 1 mps 747 mmHg 72%
    12:00 +8°C° 0 mm 1 mps 747 mmHg 70%
    13:00 +9°C° 0 mm 1 mps 746 mmHg 68%
    14:00 +9°C° 0 mm 1 mps 746 mmHg 66%
    15:00 +8°C° 0 mm 1 mps 746 mmHg 70%
    16:00 +8°C° 0 mm 1 mps 746 mmHg 73%
    17:00 +6°C° 0 mm 0 mps 746 mmHg 76%
    18:00 +6°C° 0 mm 0 mps 746 mmHg 77%
    19:00 +5°C° 0 mm 0 mps 746 mmHg 78%
    20:00 +5°C° 0 mm 0 mps 746 mmHg 79%
    21:00 +5°C° 0 mm 0 mps 746 mmHg 79%
    22:00 +5°C° 0 mm 0 mps 747 mmHg 78%
    23:00 +5°C° 0 mm 0 mps 747 mmHg 78%

    27 September, Friday

    Time Temperature Precipitation Wind Pressure Humidity
    00:00 +4°C° 0 mm 0 mps 747 mmHg 80%
    01:00 +3°C° 0 mm 0 mps 747 mmHg 81%
    02:00 +3°C° 0 mm 0 mps 747 mmHg 83%
    03:00 +2°C° 0 mm 0 mps 747 mmHg 85%
    04:00 +2°C° 0 mm 0 mps 747 mmHg 87%
    05:00 +1°C° 0 mm 0 mps 747 mmHg 89%
    06:00 +3°C° 0 mm 0 mps 747 mmHg 83%
    07:00 +4°C° 0 mm 0 mps 747 mmHg 77%
    08:00 +6°C° 0 mm 0 mps 747 mmHg 71%
    09:00 +7°C° 0 mm 0 mps 747 mmHg 66%
    10:00 +10°C° 0 mm 1 mps 747 mmHg 60%
    11:00 +11°C° 0 mm 1 mps 748 mmHg 54%
    12:00 +12°C° 0 mm 1 mps 747 mmHg 53%
    13:00 +11°C° 0 mm 0 mps 747 mmHg 52%
    14:00 +12°C° 0 mm 0 mps 747 mmHg 50%
    15:00 +10°C° 0 mm 0 mps 747 mmHg 56%
    16:00 +9°C° 0 mm 0 mps 747 mmHg 62%
    17:00 +7°C° 0 mm 0 mps 747 mmHg 68%
    18:00 +6°C° 0 mm 0 mps 747 mmHg 71%
    19:00 +5°C° 0 mm 0 mps 747 mmHg 74%
    20:00 +5°C° 0 mm 0 mps 747 mmHg 77%
    21:00 +4°C° 0 mm 0 mps 748 mmHg 78%
    22:00 +4°C° 0 mm 0 mps 748 mmHg 79%
    23:00 +4°C° 0 mm 0 mps 748 mmHg 81%
    Show more